Location: Clifton Park
(41.4873°N, 81.8024°W)
Time: 16:00:04
(UTC+00:00)

STARLINK-27 - Pass Details

Date: 21 January 2020
Orbit: 528 x 531 km, 53.0° (Epoch: 19 February)

Event Time Altitude Azimuth Distance (km) Brightness Sun altitude
Exits shadow 09:21:17 - 92° (E) 1,954 7.2 -38.5°
Enters shadow 10:25:32 -56° 230° (SW) 11,234 10.3 -26.5°
Maximum altitude 10:57:19 85° 142° (SE) 533 3.4 -20.6°
